TimeEDT,TemperatureF,Dew PointF,Humidity,Sea Level PressureIn,VisibilityMPH,Wind Direction,Wind SpeedMPH,Gust SpeedMPH,PrecipitationIn,Events,Conditions,WindDirDegrees,DateUTC
12:53 AM,77.0,73.0,88,30.00,10.0,SSW,4.6,-,N/A,,Overcast,200,2012-10-03 04:53:00
1:53 AM,75.9,72.0,87,30.00,10.0,SW,5.8,-,N/A,,Overcast,220,2012-10-03 05:53:00
2:53 AM,75.9,70.0,82,30.01,10.0,SSW,4.6,-,N/A,,Overcast,210,2012-10-03 06:53:00
3:53 AM,75.0,70.0,84,30.02,10.0,SSW,5.8,-,N/A,,Overcast,210,2012-10-03 07:53:00
4:53 AM,73.9,68.0,82,30.03,10.0,SSW,5.8,-,N/A,,Overcast,210,2012-10-03 08:53:00
5:53 AM,73.0,66.9,81,30.05,10.0,SW,5.8,-,N/A,,Overcast,220,2012-10-03 09:53:00
6:53 AM,73.0,66.9,81,30.07,10.0,SSW,4.6,-,N/A,,Overcast,210,2012-10-03 10:53:00
7:53 AM,72.0,66.9,84,30.08,10.0,WSW,4.6,-,N/A,,Overcast,240,2012-10-03 11:53:00
8:53 AM,73.0,66.9,81,30.10,10.0,WSW,5.8,-,N/A,,Overcast,240,2012-10-03 12:53:00
9:53 AM,75.0,66.9,76,30.12,10.0,Calm,Calm,-,N/A,,Overcast,0,2012-10-03 13:53:00
10:53 AM,77.0,68.0,74,30.14,10.0,SW,3.5,-,N/A,,Overcast,230,2012-10-03 14:53:00
11:53 AM,78.1,68.0,71,30.13,10.0,Calm,Calm,-,N/A,,Overcast,0,2012-10-03 15:53:00
12:53 PM,80.1,69.1,69,30.13,10.0,Variable,4.6,-,N/A,,Overcast,0,2012-10-03 16:53:00
1:53 PM,81.0,66.9,62,30.12,10.0,WNW,4.6,-,N/A,,Overcast,290,2012-10-03 17:53:00
2:53 PM,82.0,66.0,58,30.11,10.0,WNW,4.6,-,N/A,,Mostly Cloudy,290,2012-10-03 18:53:00
3:53 PM,82.0,66.0,58,30.10,10.0,WNW,6.9,-,N/A,,Overcast,300,2012-10-03 19:53:00
4:53 PM,81.0,66.0,60,30.12,10.0,West,4.6,-,N/A,,Mostly Cloudy,270,2012-10-03 20:53:00
5:53 PM,80.1,66.9,64,30.12,10.0,Calm,Calm,-,0.00,,Mostly Cloudy,0,2012-10-03 21:53:00
6:53 PM,78.1,69.1,74,30.13,10.0,Calm,Calm,-,N/A,,Mostly Cloudy,0,2012-10-03 22:53:00
7:53 PM,77.0,70.0,79,30.15,10.0,Calm,Calm,-,0.00,,Overcast,0,2012-10-03 23:53:00
8:53 PM,75.9,71.1,85,30.18,10.0,SSE,4.6,-,0.01,Rain,Light Rain,160,2012-10-04 00:53:00
9:53 PM,73.9,72.0,93,30.20,2.5,SSW,8.1,-,0.05,Rain,Heavy Rain,210,2012-10-04 01:53:00
9:57 PM,73.4,71.6,94,30.21,3.0,SW,5.8,-,0.02,Rain,Rain,220,2012-10-04 01:57:00
10:08 PM,71.6,69.8,94,30.21,2.5,West,13.8,-,0.05,Rain,Heavy Rain,260,2012-10-04 02:08:00
10:31 PM,69.8,66.2,88,30.22,1.2,WNW,4.6,-,0.18,Rain,Heavy Rain,290,2012-10-04 02:31:00
10:43 PM,69.8,66.2,88,30.22,2.0,West,6.9,-,0.29,Rain,Heavy Rain,280,2012-10-04 02:43:00
10:53 PM,68.0,66.9,96,30.22,2.0,West,5.8,-,0.34,Rain,Heavy Rain,270,2012-10-04 02:53:00
11:05 PM,68.0,66.2,94,30.22,1.2,NW,4.6,-,0.07,Rain,Heavy Rain,320,2012-10-04 03:05:00
11:12 PM,68.0,66.2,94,30.21,1.0,North,3.5,-,0.19,Rain,Heavy Rain,360,2012-10-04 03:12:00
11:19 PM,68.0,66.2,94,30.21,2.0,Calm,Calm,-,0.22,Rain,Rain,0,2012-10-04 03:19:00
11:53 PM,68.0,66.9,96,30.19,6.0,NNW,5.8,-,0.25,,Mostly Cloudy,340,2012-10-04 03:53:00